Погода в Бекренёво

Россия / Ярославская область     57°31′22″N   39°49′51″E
темп.,
°C
ветер,
м/с
пор.,
м/с
влажн.,
%
обл.,
%
осадки,
мм/ч
давл.,
гПа
погр.,
м
18 апреля, вс
вс1800:00+6всв411770 0.0 1026289
03:00+4всв411830 0.0 1026268
06:00+3всв412841 0.0 1026302
09:00+8всв611621 0.0 1025876
12:00+12всв79475 0.0 10251661
15:00+13всв794028 0.0 10252126
18:00+11всв695124 0.0 10251226
21:00+6всв7127557 0.0 1028556
19 апреля, пн
пн1900:00+4всв5118267 0.0 1028495
03:00+3всв5107894 0.0 1029480
06:00+2всв51070100 0.0 1029518
09:00+4в7957100 0.0 1030765
12:00+7в794488 0.0 10291385
15:00+8в794296 0.0 10291797
18:00+7вюв6104393 0.0 10291584
21:00+4в5124990 0.0 1030475
20 апреля, вт
вт2000:00+3в6135586 0.0 1029532
03:00+2в6126099 0.0 1029486
06:00+1в61362100 0.0 1029524
09:00+4вюв71256100 0.0 1028697
12:00+8вюв8105061 0.0 10271258
15:00+10вюв7104997 0.0 10251665
18:00+9вюв6115298 0.0 10231379
21:00+7вюв71548100 0.0 1022698
21 апреля, ср
ср2100:00+5в81551100 0.0 1020733
03:00+4в91753100 0.0 1016843
06:00+2вюв102077100 0.9 1013997
09:00+1вюв91896100 3.4 1012836
12:00+3вюв91892100 1.1 1010825
15:00+4вюв91891100 1.6 1008914
18:00+5юв91891100 1.4 10071094
21:00+5ююв81397100 2.8 10081138
22 апреля, чт
чт2200:00+5ююз81388100 0.3 10111054
03:00+4ююз81383100 0.3 1013966
06:00+5ююз7138299 0.0 1015978
09:00+7ююз8147584 0.2 10171462
12:00+9юз7117285 0.1 10191365
15:00+10юз796380 0.3 10211418
18:00+10зюз356775 0.1 1022307
21:00+7ююз228268 0.1 102322